Terminal Aerodrome Forecast
Issued by NWS Greer, SC

Home | Current Version | Previous Version | Text Only | Print | Product List | Glossary On
Versions: 1 2 3 4 5 6 7 8 9 10 11 12 13 14 15 16
000
FTUS42 KGSP 221508 AAA
TAFAVL
TAF AMD
KAVL 221508Z 2215/2312 00000KT 2SM -SHRA BR OVC030
     FM222000 15005KT P6SM OVC020
     FM230100 16003KT 4SM BR OVC020
     FM230600 VRB02KT 1SM BR OVC008=

USA.gov is the U.S. government's official web portal to all federal, state and local government web resources and services.